Location: La Brionne
(46.1728°N, 1.7849°E)
Time: 18:13:09
(UTC+00:00)

Cosmos 1544 Rocket - Pass Details

Date: 25 October 2021
Orbit: 603 x 632 km, 82.5° (Epoch: 27 November)

Event Time Altitude Azimuth Distance (km) Brightness Sun altitude
Rises 19:15:29 0° 234° (SW) 2,917 7.6 -25.9°
Reaches altitude 10° 19:18:34 10° 257° (WSW) 2,014 7.0 -26.4°
Maximum altitude 19:21:14 16° 294° (WNW) 1,680 6.6 -26.9°
Drops below altitude 10° 19:23:55 10° 331° (NNW) 2,019 6.6 -27.3°
Sets 19:27:02 0° 354° (N) 2,928 7.2 -27.9°
